星链-5973 (STARLINK-5973 )

导读

STARLINK-5973是美国SpaceX公司星链(Starlink)低轨卫星互联网星座的一员,于2023年6月12日发射。作为星链批量生产的现役卫星,它运行在近地轨道,配备相控阵天线与霍尔推进器,支持自主轨道机动和避碰,可提供高速卫星互联网接入,服务覆盖全球多个国家和地区,助力偏远地区联网、航空航海通信等场景应用。

Basic Information
目录编号:
56916
目录名称:
STARLINK-5973
国际标识:
2023-083AS
轨道中心:
EARTH
卫星名称:
星链-5973
卫星全名:
星链-5973 (STARLINK-5973 )
卫星状态:
在轨 (已飞行1188 天)
发射日期:
2023-06-12 UTC
国别 :
美国 (US)
星等 :
--
This satellite is enrolled in the Space Conjunction Data Service (SCDS) and the current flight risk assessment level is: High Risk
Orbit Information
数据来源 国际轨道数据
星历时间: 2026-09-12T05:02:08+0800
18小时前
查看轨道信息
半长轴: 6861.197km
偏心率: 0.0001125
轨道倾角: 43.002°
近地点辐角 251.037°
升交点赤经 99.137°
平近点角 109.036°
近地点: 482.288km
远地点: 483.832km
周期: 94.267分钟
每日圈数: 15.275765
Detailed Information
固有亮度:
5
最大亮度:
2.4
卫星平台:
Starlink v1.5
覆盖范围:
全球
运营商:
太空探索技术公司
运营商所在国:
美国
制造商(研发单位):
太空探索技术公司
制造商所在国:
美国
使用方式:
暂无
Satellite Introduction
星链(Starlink)计划是由太空探索技术公司(SpaceX)提出的一个巨型低轨卫星互联网星座项目,计划在2019年至2024年间在太空搭建由约1.2万颗卫星组成的“星链”网络,其中1584颗将部署在地球上空550千米处的近地轨道,并从2020年开始工作。该卫星仍在工作。
2D Orbit Map
3D Orbit Map
Orbit Altitude Analysis Chart
Orbit Inclination Analysis Chart
Orbit Comprehensive Analysis Chart
View Comprehensive Chart
Conjunction Data List
Event ID Objects TCA Miss Dist (km) Collision Risk Probability Collision Risk Index (CRI) Action
CDM_260914-100105-691606-711721
2026-09-14T
10:01:12+0000
0.495 km
远距离
1.443202E-4 高风险 0.78
CDM_260910-182205-476305-691622
2026-09-10T
18:22:44+0000
1.078 km
极远距离
1.732393E-5 中风险 0.6
CDM_260914-110205-691606-124222
OBJECT E (61242)
2026-09-14T
11:02:49+0000
1.233 km
极远距离
1.279905E-5 中风险 0.57
CDM_260914-113505-691606-711721
2026-09-14T
11:35:22+0000
1.521 km
极远距离
4.190989E-6 低风险 0.47
CDM_260914-082705-691606-711721
2026-09-14T
08:27:03+0000
2.078 km
极远距离
1.757997E-6 低风险 0.4
CDM_260913-122905-691606-387022
2026-09-13T
12:29:35+0000
2.430 km
极远距离
9.527948E-7 极低风险 0.35
Miss Distance Evolution Trend with All Objects
Collision Probability Evolution Trend with All Objects